Juanda, Indonesia

2:52 PM WIB on July 25, 2017 (GMT +0700)
Juanda

Weather History for WARR - June, 2013

Change the Weather History Date:

Saturday, June 15, 2013

  Actual Average Record
Temperature  
Mean Temperature 82 °F -  
Max Temperature 86 °F - - ()
Min Temperature 77 °F - - ()
Cooling Degree Days 16    
Growing Degree Days 32 (Base 50)    
Moisture  
Dew Point 75 °F    
Average Humidity 84    
Maximum Humidity 94    
Minimum Humidity 74    
Precipitation  
Precipitation 0.00 in - - ()
Sea Level Pressure  
Sea Level Pressure 29.74 in    
Wind  
Wind Speed 5 mph ()    
Max Wind Speed 14 mph    
Max Gust Speed -    
Visibility 5.3 miles    
Events Rain    
T = Trace of Precipitation, MM = Missing Value Source: Averaged Metar Reports

Daily Weather History Graph

Daily Weather History Graph

Search for Another Location

Airport or City:

Trip Planner

Search our weather history database for the weather conditions in past years. The results will help you decide how hot, cold, wet, or windy it might be!

Date:

Astronomy

Jun. 15, 2013 Rise Set
Actual Time 5:38 AM WIB 5:20 PM WIB
Civil Twilight 5:15 AM WIB 5:42 PM WIB
Nautical Twilight 4:49 AM WIB 6:09 PM WIB
Astronomical Twilight 4:23 AM WIB 6:35 PM WIB
Moon 10:20 AM WIB (6/15) 10:37 PM WIB (6/15)
Length of Visible Light 12h 27m
Length of Day
11h 41m
Waxing Crescent, 35% of the Moon is Illuminated
Jun 15
Waxing Crescent
Jun 17
First Quarter
Jun 23
Full
Jun 30
Last Quarter
Jul 8
New

Hourly Weather History & Observations

Time (WIB) Temp. Heat Index Dew Point Humidity Pressure Visibility Wind Dir Wind Speed Gust Speed Precip Events Conditions
12:00 AM 77.0 °F - 73.4 °F 89% 29.74 in 3.7 mi South 3.5 mph - N/A   Partly Cloudy
1:00 AM 77.0 °F - 73.4 °F 89% 29.74 in 3.7 mi Calm Calm - N/A   Partly Cloudy
1:30 AM 78.8 °F - 75.2 °F 89% 29.74 in 3.7 mi ENE 3.5 mph - N/A   Scattered Clouds
2:00 AM 78.8 °F - 75.2 °F 89% 29.74 in 5.0 mi ENE 6.9 mph - N/A   Partly Cloudy
2:30 AM 78.8 °F - 73.4 °F 83% 29.71 in 3.7 mi ENE 4.6 mph - N/A Rain Light Rain
3:00 AM 78.8 °F - 73.4 °F 83% 29.71 in 5.0 mi ENE 4.6 mph - N/A Rain Light Rain
4:30 AM 77.0 °F - 75.2 °F 94% 29.71 in 3.1 mi ESE 4.6 mph - N/A   Haze
5:00 AM 77.0 °F - 75.2 °F 94% 29.71 in 3.1 mi ESE 5.8 mph - N/A   Haze
5:30 AM 77.0 °F - 75.2 °F 94% 29.74 in 2.5 mi SSE 3.5 mph - N/A Rain Rain
6:00 AM 77.0 °F - 75.2 °F 94% 29.74 in 3.1 mi Variable 1.2 mph - N/A Rain Light Rain
6:30 AM 77.0 °F - 75.2 °F 94% 29.74 in 4.3 mi South 1.2 mph - N/A   Partly Cloudy
7:00 AM 78.8 °F - 75.2 °F 89% 29.77 in 6.2 mi SE 4.6 mph - N/A   Partly Cloudy
7:30 AM 78.8 °F - 77.0 °F 94% 29.77 in 6.2 mi SE 4.6 mph - N/A   Partly Cloudy
8:00 AM 80.6 °F 87.1 °F 77.0 °F 89% 29.80 in 6.2 mi SE 5.8 mph - N/A   Partly Cloudy
9:00 AM 82.4 °F 90.9 °F 77.0 °F 84% 29.77 in 6.2 mi ESE 9.2 mph - N/A   Partly Cloudy
9:30 AM 82.4 °F 90.9 °F 77.0 °F 84% 29.80 in 6.2 mi ESE 8.1 mph - N/A   Partly Cloudy
10:00 AM 82.4 °F 90.9 °F 77.0 °F 84% 29.77 in 6.2 mi ESE 8.1 mph - N/A   Partly Cloudy
10:30 AM 82.4 °F 90.9 °F 77.0 °F 84% 29.77 in 6.2 mi East 5.8 mph - N/A   Scattered Clouds
11:00 AM 84.2 °F 92.3 °F 75.2 °F 74% 29.74 in 6.2 mi East 4.6 mph - N/A   Scattered Clouds
11:30 AM 84.2 °F 92.3 °F 75.2 °F 74% 29.71 in 6.2 mi East 8.1 mph - N/A   Scattered Clouds
12:00 PM 84.2 °F 92.3 °F 75.2 °F 74% 29.74 in 6.2 mi East 9.2 mph - N/A   Scattered Clouds
1:00 PM 86.0 °F 96.9 °F 77.0 °F 74% 29.71 in 6.2 mi East 12.7 mph - N/A   Partly Cloudy
2:00 PM 86.0 °F 96.9 °F 77.0 °F 74% 29.65 in 6.2 mi East 12.7 mph - N/A   Partly Cloudy
3:00 PM 84.2 °F 92.3 °F 75.2 °F 74% 29.68 in 6.2 mi East 13.8 mph - N/A   Partly Cloudy
4:00 PM 82.4 °F 89.5 °F 75.2 °F 79% 29.68 in 6.2 mi East 12.7 mph - N/A   Partly Cloudy
5:00 PM 82.4 °F 89.5 °F 75.2 °F 79% 29.68 in 6.2 mi East 12.7 mph - N/A   Partly Cloudy
5:30 PM 82.4 °F 89.5 °F 75.2 °F 79% 29.71 in 6.2 mi East 9.2 mph - N/A   Partly Cloudy
6:00 PM 82.4 °F 89.5 °F 75.2 °F 79% 29.71 in 6.2 mi East 10.4 mph - N/A   Partly Cloudy
6:30 PM 82.4 °F 89.5 °F 75.2 °F 79% 29.74 in 6.2 mi East 10.4 mph - N/A   Scattered Clouds
7:00 PM 82.4 °F 89.5 °F 75.2 °F 79% 29.74 in 6.2 mi East 10.4 mph - N/A   Partly Cloudy
7:30 PM 82.4 °F 88.2 °F 73.4 °F 74% 29.74 in 6.2 mi SE 6.9 mph - N/A   Scattered Clouds
8:00 PM 80.6 °F 86.2 °F 75.2 °F 84% 29.74 in 6.2 mi SSE 8.1 mph - N/A   Mostly Cloudy
9:00 PM 80.6 °F 86.2 °F 75.2 °F 84% 29.77 in 3.7 mi SSE 6.9 mph - N/A Rain Rain
9:30 PM 80.6 °F 87.1 °F 77.0 °F 89% 29.77 in 4.3 mi SSE 4.6 mph - N/A   Mostly Cloudy
10:00 PM 80.6 °F 87.1 °F 77.0 °F 89% 29.77 in 5.6 mi ESE 6.9 mph - N/A   Scattered Clouds
10:30 PM 78.8 °F - 77.0 °F 94% 29.77 in 5.6 mi SSE 5.8 mph - N/A   Scattered Clouds
11:00 PM 78.8 °F - 75.2 °F 89% 29.74 in 6.2 mi South 5.8 mph - N/A   Scattered Clouds
11:30 PM 78.8 °F - 75.2 °F 89% 29.74 in 5.0 mi SSE 4.6 mph - N/A   Scattered Clouds